TimeCST,TemperatureF,Dew PointF,Humidity,Sea Level PressureIn,VisibilityMPH,Wind Direction,Wind SpeedMPH,Gust SpeedMPH,PrecipitationIn,Events,Conditions,WindDirDegrees,DateUTC
12:15 AM,64.4,55.4,73,30.01,10.0,South,8.1,-,N/A,,Clear,180,2012-12-04 06:15:00
12:35 AM,64.4,55.4,73,30.02,10.0,South,8.1,-,N/A,,Clear,180,2012-12-04 06:35:00
12:55 AM,64.4,55.4,73,30.02,10.0,South,8.1,-,N/A,,Clear,170,2012-12-04 06:55:00
1:15 AM,64.4,55.4,73,30.02,10.0,South,9.2,-,N/A,,Clear,170,2012-12-04 07:15:00
1:35 AM,64.4,55.4,73,30.03,10.0,South,9.2,-,N/A,,Clear,190,2012-12-04 07:35:00
1:55 AM,62.6,55.4,77,30.03,10.0,South,8.1,-,N/A,,Clear,190,2012-12-04 07:55:00
2:15 AM,62.6,55.4,77,30.03,10.0,South,8.1,-,N/A,,Mostly Cloudy,190,2012-12-04 08:15:00
2:55 AM,60.8,55.4,82,30.03,10.0,South,8.1,-,N/A,,Clear,190,2012-12-04 08:55:00
3:15 AM,62.6,55.4,77,30.02,10.0,South,9.2,-,N/A,,Clear,190,2012-12-04 09:15:00
3:35 AM,60.8,55.4,82,30.02,10.0,South,9.2,-,N/A,,Clear,180,2012-12-04 09:35:00
4:15 AM,60.8,55.4,82,30.02,10.0,South,8.1,-,N/A,,Clear,180,2012-12-04 10:15:00
4:35 AM,60.8,55.4,82,30.02,10.0,South,9.2,-,N/A,,Clear,190,2012-12-04 10:35:00
4:55 AM,60.8,57.2,88,30.02,10.0,SSE,8.1,-,N/A,,Clear,160,2012-12-04 10:55:00
5:15 AM,62.6,57.2,82,30.02,10.0,SSW,8.1,-,N/A,,Clear,200,2012-12-04 11:15:00
5:35 AM,60.8,55.4,82,30.03,10.0,SSW,6.9,-,N/A,,Clear,200,2012-12-04 11:35:00
5:55 AM,60.8,55.4,82,30.05,10.0,WSW,8.1,-,N/A,,Clear,240,2012-12-04 11:55:00
6:15 AM,60.8,55.4,82,30.07,10.0,SW,5.8,-,N/A,,Scattered Clouds,230,2012-12-04 12:15:00
6:35 AM,60.8,55.4,82,30.08,10.0,West,10.4,-,N/A,,Overcast,280,2012-12-04 12:35:00
6:55 AM,55.4,44.6,67,30.10,10.0,WNW,9.2,-,N/A,,Scattered Clouds,290,2012-12-04 12:55:00
7:15 AM,55.4,42.8,63,30.11,10.0,WNW,12.7,-,N/A,,Scattered Clouds,290,2012-12-04 13:15:00
7:35 AM,53.6,42.8,67,30.12,10.0,WNW,10.4,-,N/A,,Clear,290,2012-12-04 13:35:00
7:55 AM,53.6,42.8,67,30.13,10.0,WNW,9.2,-,N/A,,Clear,300,2012-12-04 13:55:00
8:15 AM,53.6,42.8,67,30.14,10.0,WNW,8.1,-,N/A,,Clear,300,2012-12-04 14:15:00
8:35 AM,55.4,42.8,63,30.15,10.0,NW,10.4,-,N/A,,Clear,310,2012-12-04 14:35:00
8:55 AM,57.2,42.8,59,30.15,10.0,NW,11.5,-,N/A,,Clear,320,2012-12-04 14:55:00
9:15 AM,57.2,42.8,59,30.17,10.0,NW,11.5,-,N/A,,Clear,320,2012-12-04 15:15:00
9:35 AM,59.0,42.8,55,30.17,10.0,NW,11.5,-,N/A,,Clear,320,2012-12-04 15:35:00
9:55 AM,60.8,42.8,52,30.17,10.0,NW,11.5,16.1,N/A,,Clear,320,2012-12-04 15:55:00
10:15 AM,60.8,42.8,52,30.18,10.0,NNW,12.7,17.3,N/A,,Clear,330,2012-12-04 16:15:00
10:35 AM,62.6,42.8,48,30.18,10.0,NW,10.4,-,N/A,,Clear,320,2012-12-04 16:35:00
10:55 AM,64.4,44.6,49,30.18,10.0,NNW,10.4,-,N/A,,Clear,340,2012-12-04 16:55:00
11:15 AM,64.4,44.6,49,30.18,10.0,NNW,10.4,-,N/A,,Clear,340,2012-12-04 17:15:00
11:35 AM,64.4,44.6,49,30.18,10.0,NNW,9.2,16.1,N/A,,Clear,330,2012-12-04 17:35:00
11:55 AM,66.2,44.6,46,30.18,10.0,NW,10.4,-,N/A,,Clear,320,2012-12-04 17:55:00
12:15 PM,68.0,44.6,43,30.17,10.0,NW,8.1,-,N/A,,Clear,310,2012-12-04 18:15:00
12:35 PM,68.0,46.4,46,30.16,10.0,NW,13.8,19.6,N/A,,Clear,310,2012-12-04 18:35:00
12:55 PM,69.8,46.4,43,30.16,10.0,NNW,15.0,19.6,N/A,,Clear,330,2012-12-04 18:55:00
1:15 PM,69.8,46.4,43,30.15,10.0,NW,17.3,24.2,N/A,,Clear,320,2012-12-04 19:15:00
1:35 PM,71.6,46.4,41,30.14,10.0,NNW,18.4,24.2,N/A,,Clear,330,2012-12-04 19:35:00
1:55 PM,71.6,46.4,41,30.13,10.0,NW,15.0,20.7,N/A,,Clear,320,2012-12-04 19:55:00
2:15 PM,71.6,48.2,43,30.13,10.0,North,15.0,21.9,N/A,,Clear,360,2012-12-04 20:15:00
2:35 PM,71.6,46.4,41,30.14,10.0,North,12.7,-,N/A,,Clear,360,2012-12-04 20:35:00
2:55 PM,71.6,46.4,41,30.15,10.0,NNW,17.3,24.2,N/A,,Clear,340,2012-12-04 20:55:00
3:15 PM,71.6,46.4,41,30.15,10.0,North,18.4,26.5,N/A,,Clear,350,2012-12-04 21:15:00
3:35 PM,71.6,44.6,38,30.15,10.0,North,19.6,26.5,N/A,,Clear,350,2012-12-04 21:35:00
3:55 PM,69.8,42.8,38,30.16,10.0,North,17.3,23.0,N/A,,Clear,350,2012-12-04 21:55:00
4:15 PM,69.8,41.0,35,30.16,10.0,North,15.0,21.9,N/A,,Clear,10,2012-12-04 22:15:00
4:35 PM,69.8,41.0,35,30.17,10.0,North,13.8,-,N/A,,Clear,360,2012-12-04 22:35:00
4:55 PM,68.0,39.2,35,30.17,10.0,North,10.4,-,N/A,,Clear,350,2012-12-04 22:55:00
5:15 PM,66.2,37.4,35,30.17,10.0,North,8.1,-,N/A,,Clear,350,2012-12-04 23:15:00
5:35 PM,64.4,37.4,37,30.18,10.0,NNW,8.1,-,N/A,,Clear,340,2012-12-04 23:35:00
5:55 PM,62.6,35.6,37,30.18,10.0,North,9.2,-,N/A,,Clear,350,2012-12-04 23:55:00
6:15 PM,62.6,33.8,34,30.18,10.0,North,6.9,-,N/A,,Clear,350,2012-12-05 00:15:00
6:35 PM,59.0,32.0,36,30.19,10.0,North,9.2,-,N/A,,Clear,360,2012-12-05 00:35:00
6:55 PM,59.0,32.0,36,30.19,10.0,North,5.8,-,N/A,,Clear,10,2012-12-05 00:55:00
7:15 PM,55.4,30.2,38,30.20,10.0,NNW,5.8,-,N/A,,Clear,340,2012-12-05 01:15:00
7:35 PM,53.6,32.0,44,30.20,10.0,NNW,8.1,-,N/A,,Clear,330,2012-12-05 01:35:00
7:55 PM,51.8,30.2,44,30.21,10.0,NW,9.2,-,N/A,,Clear,320,2012-12-05 01:55:00
8:15 PM,51.8,30.2,44,30.22,10.0,NNW,8.1,-,N/A,,Clear,340,2012-12-05 02:15:00
8:35 PM,51.8,32.0,47,30.23,10.0,NNW,9.2,-,N/A,,Clear,340,2012-12-05 02:35:00
8:55 PM,50.0,32.0,50,30.23,10.0,NNW,8.1,-,N/A,,Clear,330,2012-12-05 02:55:00
9:15 PM,57.2,30.2,36,30.23,10.0,North,12.7,-,N/A,,Clear,350,2012-12-05 03:15:00
9:35 PM,53.6,28.4,38,30.24,10.0,North,8.1,-,N/A,,Clear,360,2012-12-05 03:35:00
9:55 PM,55.4,28.4,36,30.24,10.0,North,9.2,-,N/A,,Clear,10,2012-12-05 03:55:00
10:15 PM,53.6,28.4,38,30.25,10.0,North,9.2,-,N/A,,Clear,10,2012-12-05 04:15:00
10:35 PM,53.6,28.4,38,30.25,10.0,North,9.2,-,N/A,,Clear,10,2012-12-05 04:35:00
10:55 PM,50.0,28.4,43,30.26,10.0,North,8.1,-,N/A,,Clear,360,2012-12-05 04:55:00
11:15 PM,48.2,28.4,46,30.26,10.0,North,9.2,-,N/A,,Clear,350,2012-12-05 05:15:00
11:35 PM,48.2,28.4,46,30.26,10.0,North,8.1,-,N/A,,Clear,10,2012-12-05 05:35:00
11:55 PM,46.4,26.6,46,30.25,10.0,North,6.9,-,N/A,,Clear,360,2012-12-05 05:55:00